Miscellaneous Local Product
Issued by NWS North Platte, NE

Home | Current Version | Previous Version | Graphics & Text | Print | Product List | Glossary On
Versions: 1 2 3 4 5 6 7 8 9 10 11 12 13 14 15 16 17 18 19 20 21 22 23 24 25 26 27 28 29 30 31 32 33 34 35 36 37 38 39 40 41 42 43 44 45 46 47 48 49 50
000
AXUS43 KLBF 251210
MISLBF


WESTERN AND NORTH CENTRAL NEBRASKA HOURLY WEATHER ROUNDUP
NATIONAL WEATHER SERVICE NORTH PLATTE NE
700 AM CDT WED MAR 25 2015

***STATIONS NOT REPORTING VARIABLES SUCH AS SKY/WEATHER OR
PRESSURE ARE PROVIDED BY THE NEBRASKA DEPARTMENT OF
ROADS...RAWS...AND APRS NETWORKS...AND ARE NOT UNDER
NATIONAL WEATHER SERVICE QUALITY CONTROL***

...OBSERVATIONS IN AND NEAR THE EASTERN PANHANDLE OF NEBRASKA...

CITY           SKY/WX    TMP DP  RH WIND       PRES   REMARKS
PINE RIDGE     CLOUDY    29  23  78 N7        30.09R WCI  22
CHADRON        MOCLDY    30  25  81 E9        30.11R WCI  22
ALLIANCE       CLOUDY    38  25  59 NE14      30.04R WCI  30
SIDNEY         CLOUDY    40  30  67 N8        30.01R WCI  34
WHITECLAY        N/A     28  23  81 SW6         N/A  WCI  22
CRESCENT LAKE    N/A     39  24  55 NE9         N/A  WCI  33
BIG SPRINGS      N/A     44  39  82 CALM        N/A
$$

...OBSERVATIONS IN NORTH CENTRAL NEBRASKA...

CITY           SKY/WX    TMP DP  RH WIND       PRES   REMARKS
VALENTINE      CLOUDY    32  26  78 NW13G22   30.05R WCI  22
THEDFORD       CLOUDY    37  30  74 N17G24    30.02R WCI  28
AINSWORTH      CLOUDY    33  28  80 NW14      30.04R WCI  23
O`NEILL        CLOUDY    35  30  83 NW20      30.01R WCI  24
ORD            CLOUDY    38  32  79 N14       29.99R WCI  30
BROKEN BOW     CLOUDY    41  31  67 N17       29.98R
BROWNLEE         N/A     33  29  85 N17         N/A  WCI  23
SPRINGVIEW       N/A     33  27  79 W5G14       N/A  WCI  28
BREWSTER         N/A     37  29  74 SW17        N/A  WCI  27
ROSE             N/A     36  32  87 W17         N/A  WCI  26
NEWPORT          N/A     36  30  80 W13         N/A  WCI  27
SARGENT          N/A     38  31  75 NW3         N/A
COMSTOCK         N/A     41  34  75 N10         N/A
EWING            N/A     35  32  89 NW7         N/A  WCI  29
$$

...OBSERVATIONS IN SOUTHWEST NEBRASKA AND FAR NORTHEAST COLORADO...

CITY           SKY/WX    TMP DP  RH WIND       PRES   REMARKS
WRAY           CLOUDY    43  35  73 N3        29.99R
HOLYOKE        FAIR      45  36  70 NW10      29.97R
IMPERIAL         N/A     44  35  70 W6        29.98R
OGALLALA       CLOUDY    42  33  70 N8        30.00R
NORTH PLATTE   CLOUDY    43  31  62 N18       29.98R
MCCOOK         MOCLDY    45  32  60 W8        29.97R
LEXINGTON      CLOUDY    49  32  52 N15       29.97R
PAXTON           N/A     47  37  67 NW3         N/A
SUTHERLAND       N/A     38  27  64 N14         N/A  WCI  29
BRADY            N/A     44  32  62 NW5G13      N/A
GOTHENBURG       N/A     49  28  44 NW7         N/A
CALLAWAY         N/A     44  33  66 N13         N/A
$$

...NORTH PLATTE AREA...

CITY           SKY/WX    TMP DP  RH WIND       PRES   REMARKS
AIRPORT        CLOUDY    43  31  62 N18       29.98R
DOWNTOWN         N/A     42  32  67 N8G17       N/A
$$

...SOME WEATHER OBSERVATIONS FROM AROUND THE REGION...

CITY           SKY/WX    TMP DP  RH WIND       PRES   REMARKS
DENVER         FLURRIES  35  34  96 N13       30.03R WCI  26
LARAMIE        CLOUDY    28  21  75 NW10      30.02R WCI  19
CHEYENNE       CLOUDY    35  20  54 N17G26    29.99R WCI  25
SCOTTSBLUFF    LGT RAIN  37  32  82 NE12      30.06R WCI  29
RAPID CITY     CLOUDY    30  25  81 N14G24    30.10R WCI  19
PIERRE         CLOUDY    34  24  67 NW22G32   30.05R WCI  22
WINNER         MOCLDY    35  25  66 NW20      30.04R WCI  24
SIOUX FALLS    PTCLDY    32  27  81 W13G24    29.94R WCI  22
OMAHA          CLOUDY    37  36  96 N10       29.97R FOG     WCI  30
GRAND ISLAND   CLOUDY    38  37  97 N9        29.99R FOG     WCI  31
KANSAS CITY    FOG       39  39 100 CALM      29.96R VSB 1/2
WICHITA        CLOUDY    49  43  80 SE5       29.91S
HAYS           PTCLDY    36  21  55 N9        29.94F WCI  29
LIBERAL        MOCLDY    48  27  43 SE9       29.86S
GOODLAND       PTCLDY    35  30  82 CALM      29.98R
$$



USA.gov is the U.S. government's official web portal to all federal, state and local government web resources and services.